Regional Weather Roundup
Issued by NWS

Home | Current Version | Previous Version | Text Only | Print | Product List | Glossary Off
Versions: 1 2 3 4 5 6 7 8 9 10 11 12 13 14 15 16 17 18 19 20 21 22 23 24 25 26 27 28 29 30 31 32 33 34 35 36 37 38 39 40 41 42 43 44 45 46 47 48 49 50

000
ASUS45 KBOU 162107
RWRCO

WEATHER ROUNDUP FOR COLORADO
NATIONAL WEATHER SERVICE DENVER/BOULDER CO
300 PM MDT MON OCT 16 2017

NOTE: "FAIR" INDICATES FEW OR NO CLOUDS BELOW 12000 FEET WITH NO
SIGNIFICANT WEATHER AND/OR OBSTRUCTIONS TO VISIBILITY.

COZ001>005-013-030-031-162200-
...NORTHWEST COLORADO...

CITY           SKY/WX    TMP DP  RH WIND       PRES   REMARKS
CRAIG          FAIR      68  -4   5 W10G23    30.36F
HAYDEN         FAIR      65   6  10 NW12      30.38F
MEEKER         FAIR      69   3   7 W10       30.36F
RABBIT EARS PA FAIR      46   9  21 W12G20    30.55S
STEAMBOAT SPGS FAIR      64   0   7 W12G22    30.38F
WALDEN         FAIR      63  -2   7 W15G22    30.41F
$$

COZ006>008-011-162200-
...WEST CENTRAL VALLEYS...

CITY           SKY/WX    TMP DP  RH WIND       PRES   REMARKS
GRAND JUNCTION FAIR      65  16  15 NW8       30.36F
MONTROSE       FAIR      66  11  11 NW6       30.37F
EAGLE          FAIR      69  -2   6 W16G23    30.36F
RIFLE          FAIR      67  13  12 W7        30.35F
DELTA          FAIR      71  10   9 W9        30.35F
NUCLA          FAIR      72   3   7 N6        30.41F
$$

COZ017>023-064>068-162200-
...SOUTHWEST COLORADO...

CITY           SKY/WX    TMP DP  RH WIND       PRES   REMARKS
DURANGO        FAIR      71  12  10 SW12G17   30.40F
CORTEZ         FAIR      70   9   9 SW7       30.39F
PAGOSA SPRINGS FAIR      67   2   7 SE8       30.46F
TELLURIDE      FAIR      64   3   8 W14       30.53F
WOLF CREEK PAS NOT AVBL
$$

COZ009-010-012-014-032>034-037-058>063-162200-
...CENTRAL COLORADO...

CITY           SKY/WX    TMP DP  RH WIND       PRES   REMARKS
ASPEN          FAIR      66   2   8 N10       30.41F
BUENA VISTA    FAIR      70 -14   3 SW21G30   30.37F
COPPER MTN     FAIR      50 -27   3 W17G29    30.62F
BERTHOUD PASS  FAIR      37  30  75 W40G49    30.60S
COTTONWOOD PAS   N/A     64 N/A N/A SW17G30   30.49F
GUNNISON       FAIR      64   8  11 S5        30.42F
KREMMLING      FAIR      73 -13   3 SW9G18    30.39F
LEADVILLE      FAIR      58 -16   4 NW10G17   30.49F
MONARCH PASS   FAIR      46  -6  11 SW29G39   30.74S
SALIDA         NOT AVBL
SUNLIGHT       FAIR      52   5  15 SW8G22    30.61F
WILKERSON PASS FAIR      57  -6   7 W7        30.60S
$$

COZ069>075-162200-
...SAN LUIS VALLEY/SANGRE DE CRISTO MOUNTAINS...

CITY           SKY/WX    TMP DP  RH WIND       PRES   REMARKS
ALAMOSA        FAIR      66   4   8 VRB5      30.41F
DEL NORTE      FAIR      62  13  15 E7        30.45F
LA VETA PASS   FAIR      59   9  13 MISG      30.65F
SAGUACHE       FAIR      63  12  14 S7        30.44F
$$

COZ035-036-038>040-162200-
...NORTHERN COLORADO FRONT RANGE...

CITY           SKY/WX    TMP DP  RH WIND       PRES   REMARKS
DENVER INTL AP FAIR      77   4   6 W13       30.21F
DMNS CITY PARK   N/A     74  15  10 SW6       30.21F
AURORA         MOSUNNY   76   6   6 N3        30.24F
FRONT RANGE AP MOSUNNY   79   7   6 NW16G23   30.22F
ERIE MUNI ARPT FAIR      77   4   6 W8        30.24F
BOULDER MUN AP FAIR      72  18  13 SW13      30.20F
CENTENNIAL     PTSUNNY   72   7   8 NW6       30.24F
BROOMFIELD     PTSUNNY   72  21  15 SW8       30.24F
FORT COLLINS   FAIR      77  27  15 SE5       30.19F
LONGMONT       FAIR      80  13   8 SW10      30.19F
$$

COZ041-046-047-076>085-087-088-162200-
...PIKES PEAK/PALMER DIVIDE AND SOUTHERN FOOTHILLS...

CITY           SKY/WX    TMP DP  RH WIND       PRES   REMARKS
COLO. SPRINGS  PTSUNNY   74   7   7 S7        30.27F
A. F. ACADEMY  FAIR      73   2   6 S9        30.27F
SCHRIEVER AFB  FAIR      73   9   8 S5        30.27F
CHEYENNE MTN   PTSUNNY   66  11  12 S3        30.26F
ELLICOTT       FAIR     N/A N/A N/A NW7       30.26F
FALCON         FAIR      71  -2   5 CALM      30.32F
FORT CARSON    SUNNY     77   5   6 E9        30.24F
LIMON          FAIR      78   5   6 W14       30.21F
MONUMENT HILL  FAIR      68   3   8 CALM      30.33F
CANON CITY     SUNNY     84   3   4 SW13G20   30.21F
WALSENBURG     NOT AVBL
TRINIDAD       FAIR      80  14   8 VRB3      30.26F
$$

COZ042>045-048>051-090-091-162200-
...NORTHEAST COLORADO...

CITY           SKY/WX    TMP DP  RH WIND       PRES   REMARKS
GREELEY ARPT   FAIR      76  28  17 CALM      30.18F
AKRON          FAIR      77  15   9 NW10      30.17F
BURLINGTON     FAIR      80  21  11 W12       30.16F
WRAY           FAIR      81  23  12 CALM      30.13F
YUMA           NOT AVBL
STERLING       FAIR      79  23  12 NW6       30.13F
HOLYOKE        FAIR      81  18   9 NW12      30.12F
FORT MORGAN    FAIR      79  10   7 W10G16    30.17F
$$

COZ086-089-092>099-162200-
...SOUTHEAST COLORADO...

CITY           SKY/WX    TMP DP  RH WIND       PRES   REMARKS
PUEBLO         FAIR      82   7   6 W9        30.17F
LA JUNTA       FAIR      79  20  11 SW3       30.18F
LAMAR          FAIR      75  27  17 SW8       30.15F
SPRINGFIELD      N/A     76  32  20 S10       30.20F
$$



USA.gov is the U.S. government's official web portal to all federal, state and local government web resources and services.